Time,TemperatureF,DewpointF,PressureIn,WindDirection,WindDirectionDegrees,WindSpeedMPH,WindSpeedGustMPH,Humidity,HourlyPrecipIn,Conditions,Clouds,dailyrainin,SoftwareType,DateUTC
2013-02-23 00:01:00,48.2,24.4,30.11,SSE,150,0.0,0.0,39,0.00,,,0.00,VWS V14.01,2013-02-23 08:01:00,
2013-02-23 00:06:00,47.8,24.1,30.11,SW,225,2.2,3.1,39,0.00,,,0.00,VWS V14.01,2013-02-23 08:06:00,
2013-02-23 00:11:00,47.7,22.7,30.11,West,276,3.6,3.6,37,0.00,,,0.00,VWS V14.01,2013-02-23 08:11:00,
2013-02-23 00:16:00,47.7,22.7,30.11,West,270,2.2,2.2,37,0.00,,,0.00,VWS V14.01,2013-02-23 08:16:00,
2013-02-23 00:21:00,47.5,21.9,30.11,WSW,245,2.7,3.1,36,0.00,,,0.00,VWS V14.01,2013-02-23 08:21:00,
2013-02-23 00:26:00,47.5,19.8,30.08,SSW,212,3.6,3.6,33,0.00,,,0.00,VWS V14.01,2013-02-23 08:26:00,
2013-02-23 00:31:00,47.3,19.0,30.08,SW,233,4.0,4.0,32,0.00,,,0.00,VWS V14.01,2013-02-23 08:31:00,
2013-02-23 00:36:00,47.3,18.2,30.08,WNW,298,5.4,7.6,31,0.00,,,0.00,VWS V14.01,2013-02-23 08:36:00,
2013-02-23 00:41:00,47.5,16.0,30.11,WNW,302,6.7,7.2,28,0.00,,,0.00,VWS V14.01,2013-02-23 08:41:00,
2013-02-23 00:46:00,47.7,15.3,30.11,NW,316,2.7,5.8,27,0.00,,,0.00,VWS V14.01,2013-02-23 08:46:00,
2013-02-23 00:51:00,47.7,15.3,30.11,West,266,2.7,3.6,27,0.00,,,0.00,VWS V14.01,2013-02-23 08:51:00,
2013-02-23 00:56:00,47.7,15.3,30.08,WNW,284,3.6,3.6,27,0.00,,,0.00,VWS V14.01,2013-02-23 08:56:00,
2013-02-23 01:01:00,47.5,16.0,30.08,WNW,288,2.7,2.7,28,0.00,,,0.00,VWS V14.01,2013-02-23 09:01:00,
2013-02-23 01:06:00,47.5,17.6,30.08,NNW,340,6.3,6.3,30,0.00,,,0.00,VWS V14.01,2013-02-23 09:06:00,
2013-02-23 01:11:00,47.7,18.5,30.08,SSW,198,3.1,5.4,31,0.00,,,0.00,VWS V14.01,2013-02-23 09:11:00,
2013-02-23 01:16:00,47.7,19.3,30.08,South,186,8.1,8.1,32,0.00,,,0.00,VWS V14.01,2013-02-23 09:16:00,
2013-02-23 01:21:00,47.7,20.0,30.08,SW,225,5.4,5.4,33,0.00,,,0.00,VWS V14.01,2013-02-23 09:21:00,
2013-02-23 01:26:00,47.5,20.5,30.08,South,190,3.6,5.4,34,0.00,,,0.00,VWS V14.01,2013-02-23 09:26:00,
2013-02-23 01:31:00,47.3,21.0,30.08,SW,217,3.6,3.6,35,0.00,,,0.00,VWS V14.01,2013-02-23 09:31:00,
2013-02-23 01:36:00,47.3,21.7,30.08,SSW,213,3.6,3.6,36,0.00,,,0.00,VWS V14.01,2013-02-23 09:36:00,
2013-02-23 01:41:00,47.3,22.4,30.08,SW,228,2.2,2.2,37,0.00,,,0.00,VWS V14.01,2013-02-23 09:41:00,
2013-02-23 01:46:00,47.3,22.4,30.08,SSW,195,4.9,5.8,37,0.00,,,0.00,VWS V14.01,2013-02-23 09:46:00,
2013-02-23 01:51:00,47.3,23.0,30.08,SW,236,2.2,2.7,38,0.00,,,0.00,VWS V14.01,2013-02-23 09:51:00,
2013-02-23 01:56:00,47.1,22.8,30.08,SW,235,2.7,3.1,38,0.00,,,0.00,VWS V14.01,2013-02-23 09:56:00,
2013-02-23 02:01:00,47.1,22.8,30.08,WSW,258,3.1,3.1,38,0.00,,,0.00,VWS V14.01,2013-02-23 10:01:00,
2013-02-23 02:06:00,47.1,24.1,30.08,SW,235,3.6,3.6,40,0.00,,,0.00,VWS V14.01,2013-02-23 10:06:00,
2013-02-23 02:11:00,47.3,24.2,30.08,SW,219,3.1,4.9,40,0.00,,,0.00,VWS V14.01,2013-02-23 10:11:00,
2013-02-23 02:16:00,47.3,25.4,30.08,SW,217,5.8,6.3,42,0.00,,,0.00,VWS V14.01,2013-02-23 10:16:00,
2013-02-23 02:21:00,47.5,26.7,30.08,WSW,253,3.6,6.3,44,0.00,,,0.00,VWS V14.01,2013-02-23 10:21:00,
2013-02-23 02:26:00,47.5,27.2,30.08,SSW,206,0.0,2.7,45,0.00,,,0.00,VWS V14.01,2013-02-23 10:26:00,
2013-02-23 02:31:00,47.5,27.8,30.08,SSW,211,2.7,3.6,46,0.00,,,0.00,VWS V14.01,2013-02-23 10:31:00,
2013-02-23 02:36:00,47.7,27.9,30.08,West,272,2.2,3.1,46,0.00,,,0.00,VWS V14.01,2013-02-23 10:36:00,
2013-02-23 02:41:00,47.7,28.4,30.08,WNW,301,3.1,5.4,47,0.00,,,0.00,VWS V14.01,2013-02-23 10:41:00,
2013-02-23 02:46:00,47.8,29.1,30.08,WNW,299,3.1,3.6,48,0.00,,,0.00,VWS V14.01,2013-02-23 10:46:00,
2013-02-23 02:51:00,48.0,29.3,30.08,West,274,3.6,4.9,48,0.00,,,0.00,VWS V14.01,2013-02-23 10:51:00,
2013-02-23 02:56:00,48.0,29.3,30.05,SW,226,0.0,2.7,48,0.00,,,0.00,VWS V14.01,2013-02-23 10:56:00,
2013-02-23 03:01:00,48.0,29.3,30.05,South,186,0.0,2.2,48,0.00,,,0.00,VWS V14.01,2013-02-23 11:01:00,
2013-02-23 03:06:00,48.0,29.3,30.05,SSW,195,0.0,2.2,48,0.00,,,0.00,VWS V14.01,2013-02-23 11:06:00,
2013-02-23 03:11:00,48.0,29.3,30.05,South,171,0.0,3.1,48,0.00,,,0.00,VWS V14.01,2013-02-23 11:11:00,
2013-02-23 03:16:00,47.8,29.1,30.05,SE,143,0.0,2.7,48,0.00,,,0.00,VWS V14.01,2013-02-23 11:16:00,
2013-02-23 03:21:00,47.8,29.1,30.05,South,171,0.0,3.1,48,0.00,,,0.00,VWS V14.01,2013-02-23 11:21:00,
2013-02-23 03:26:00,48.0,29.3,30.05,SSE,163,0.0,2.7,48,0.00,,,0.00,VWS V14.01,2013-02-23 11:26:00,
2013-02-23 03:32:00,48.0,29.3,30.05,SE,137,2.2,3.6,48,0.00,,,0.00,VWS V14.01,2013-02-23 11:32:00,
2013-02-23 03:37:00,48.4,29.6,30.05,SW,230,3.1,4.0,48,0.00,,,0.00,VWS V14.01,2013-02-23 11:37:00,
2013-02-23 03:42:00,48.6,29.8,30.05,SW,214,5.8,5.8,48,0.00,,,0.00,VWS V14.01,2013-02-23 11:42:00,
2013-02-23 03:47:00,48.7,31.0,30.05,SW,234,3.1,4.9,50,0.00,,,0.00,VWS V14.01,2013-02-23 11:47:00,
2013-02-23 03:52:00,48.9,31.1,30.05,SSW,192,4.0,4.0,50,0.00,,,0.00,VWS V14.01,2013-02-23 11:52:00,
2013-02-23 03:57:00,48.9,31.6,30.05,SSW,202,2.7,5.4,51,0.00,,,0.00,VWS V14.01,2013-02-23 11:57:00,
2013-02-23 04:02:00,48.9,32.1,30.05,WSW,247,3.6,3.6,52,0.00,,,0.00,VWS V14.01,2013-02-23 12:02:00,
2013-02-23 04:07:00,48.9,32.6,30.05,SSW,201,4.0,5.8,53,0.00,,,0.00,VWS V14.01,2013-02-23 12:07:00,
2013-02-23 04:12:00,48.9,32.6,30.05,SSW,213,2.7,2.7,53,0.00,,,0.00,VWS V14.01,2013-02-23 12:12:00,
2013-02-23 04:17:00,48.9,33.0,30.05,SW,224,3.1,4.0,54,0.00,,,0.00,VWS V14.01,2013-02-23 12:17:00,
2013-02-23 04:22:00,48.7,33.3,30.05,SW,224,2.7,3.6,55,0.00,,,0.00,VWS V14.01,2013-02-23 12:22:00,
2013-02-23 04:27:00,48.9,33.5,30.05,SW,216,0.0,0.0,55,0.00,,,0.00,VWS V14.01,2013-02-23 12:27:00,
2013-02-23 04:32:00,48.9,33.9,30.05,WNW,292,2.7,2.7,56,0.00,,,0.00,VWS V14.01,2013-02-23 12:32:00,
2013-02-23 04:37:00,48.9,34.4,30.05,NW,307,0.0,0.0,57,0.00,,,0.00,VWS V14.01,2013-02-23 12:37:00,
2013-02-23 04:42:00,48.7,34.2,30.05,NNW,341,0.0,0.0,57,0.00,,,0.00,VWS V14.01,2013-02-23 12:42:00,
2013-02-23 04:47:00,48.7,34.6,30.05,NNW,332,0.0,0.0,58,0.00,,,0.00,VWS V14.01,2013-02-23 12:47:00,
2013-02-23 04:52:00,48.6,35.3,30.05,WNW,286,3.6,4.0,60,0.00,,,0.00,VWS V14.01,2013-02-23 12:52:00,
2013-02-23 04:57:00,48.4,35.6,30.05,West,268,2.2,4.0,61,0.00,,,0.00,VWS V14.01,2013-02-23 12:57:00,
2013-02-23 05:02:00,48.2,35.4,30.05,West,268,0.0,0.0,61,0.00,,,0.00,VWS V14.01,2013-02-23 13:02:00,
2013-02-23 05:07:00,48.0,35.2,30.05,West,268,0.0,0.0,61,0.00,,,0.00,VWS V14.01,2013-02-23 13:07:00,
2013-02-23 05:12:00,47.7,34.5,30.05,West,268,0.0,0.0,60,0.00,,,0.00,VWS V14.01,2013-02-23 13:12:00,
2013-02-23 05:17:00,47.5,34.7,30.05,SW,217,0.0,0.0,61,0.00,,,0.00,VWS V14.01,2013-02-23 13:17:00,
2013-02-23 05:22:00,47.5,34.7,30.05,SW,217,0.0,0.0,61,0.00,,,0.00,VWS V14.01,2013-02-23 13:22:00,
2013-02-23 05:27:00,47.3,34.5,30.05,West,259,2.7,4.0,61,0.00,,,0.00,VWS V14.01,2013-02-23 13:27:00,
2013-02-23 05:32:00,47.1,34.4,30.05,WSW,253,5.8,6.3,61,0.00,,,0.00,VWS V14.01,2013-02-23 13:32:00,
2013-02-23 05:37:00,46.8,33.6,30.05,West,277,2.7,3.6,60,0.00,,,0.00,VWS V14.01,2013-02-23 13:37:00,
2013-02-23 05:42:00,46.4,32.0,30.05,WSW,239,3.6,5.8,57,0.00,,,0.00,VWS V14.01,2013-02-23 13:42:00,
2013-02-23 05:47:00,46.2,30.5,30.05,WNW,287,4.0,6.3,54,0.00,,,0.00,VWS V14.01,2013-02-23 13:47:00,
2013-02-23 05:52:00,46.0,29.4,30.05,North,0,2.7,3.1,52,0.00,,,0.00,VWS V14.01,2013-02-23 13:52:00,
2013-02-23 05:57:00,45.9,29.2,30.05,North,4,0.0,0.0,52,0.00,,,0.00,VWS V14.01,2013-02-23 13:57:00,
2013-02-23 06:02:00,45.5,28.4,30.05,WNW,291,0.0,3.1,51,0.00,,,0.00,VWS V14.01,2013-02-23 14:02:00,
2013-02-23 06:07:00,45.5,28.4,30.05,North,11,4.0,4.0,51,0.00,,,0.00,VWS V14.01,2013-02-23 14:07:00,
2013-02-23 06:12:00,45.5,28.0,30.08,WNW,295,3.1,3.1,50,0.00,,,0.00,VWS V14.01,2013-02-23 14:12:00,
2013-02-23 06:17:00,45.3,27.8,30.08,WNW,282,3.1,3.1,50,0.00,,,0.00,VWS V14.01,2013-02-23 14:17:00,
2013-02-23 06:22:00,45.3,27.8,30.08,WNW,282,2.2,2.7,50,0.00,,,0.00,VWS V14.01,2013-02-23 14:22:00,
2013-02-23 06:27:00,45.1,27.1,30.08,WNW,282,0.0,0.0,49,0.00,,,0.00,VWS V14.01,2013-02-23 14:27:00,
2013-02-23 06:32:00,44.8,26.8,30.08,WNW,282,0.0,0.0,49,0.00,,,0.00,VWS V14.01,2013-02-23 14:32:00,
2013-02-23 06:37:00,44.6,26.6,30.08,WNW,283,0.0,0.0,49,0.00,,,0.00,VWS V14.01,2013-02-23 14:37:00,
2013-02-23 06:42:00,44.4,27.0,30.08,WNW,282,0.0,0.0,50,0.00,,,0.00,VWS V14.01,2013-02-23 14:42:00,
2013-02-23 06:47:00,44.2,26.8,30.08,WNW,282,0.0,0.0,50,0.00,,,0.00,VWS V14.01,2013-02-23 14:47:00,
2013-02-23 06:52:00,44.1,26.6,30.08,WNW,282,2.2,2.7,50,0.00,,,0.00,VWS V14.01,2013-02-23 14:52:00,
2013-02-23 06:57:00,44.1,26.6,30.11,WNW,282,2.2,2.2,50,0.00,,,0.00,VWS V14.01,2013-02-23 14:57:00,
2013-02-23 07:02:00,44.1,26.6,30.11,NW,324,0.0,0.0,50,0.00,,,0.00,VWS V14.01,2013-02-23 15:02:00,
2013-02-23 07:07:00,44.2,26.8,30.11,North,353,2.2,2.7,50,0.00,,,0.00,VWS V14.01,2013-02-23 15:07:00,
2013-02-23 07:12:00,44.2,26.8,30.11,West,272,3.1,3.1,50,0.00,,,0.00,VWS V14.01,2013-02-23 15:12:00,
2013-02-23 07:17:00,44.4,27.0,30.11,North,0,2.7,4.9,50,0.00,,,0.00,VWS V14.01,2013-02-23 15:17:00,
2013-02-23 07:22:00,44.6,26.6,30.11,North,1,4.9,4.9,49,0.00,,,0.00,VWS V14.01,2013-02-23 15:22:00,
2013-02-23 07:27:00,44.8,26.3,30.11,NNW,340,3.6,5.4,48,0.00,,,0.00,VWS V14.01,2013-02-23 15:27:00,
2013-02-23 07:32:00,44.8,25.3,30.11,North,8,3.1,5.4,46,0.00,,,0.00,VWS V14.01,2013-02-23 15:32:00,
2013-02-23 07:37:00,44.8,24.8,30.11,North,353,2.7,3.6,45,0.00,,,0.00,VWS V14.01,2013-02-23 15:37:00,
2013-02-23 07:42:00,44.8,23.7,30.11,North,6,2.7,5.4,43,0.00,,,0.00,VWS V14.01,2013-02-23 15:42:00,
2013-02-23 07:47:00,44.8,23.7,30.11,North,0,4.0,4.0,43,0.00,,,0.00,VWS V14.01,2013-02-23 15:47:00,
2013-02-23 07:52:00,45.1,23.4,30.11,WNW,302,2.7,2.7,42,0.00,,,0.00,VWS V14.01,2013-02-23 15:52:00,
2013-02-23 07:57:00,45.3,23.0,30.14,North,5,2.7,4.0,41,0.00,,,0.00,VWS V14.01,2013-02-23 15:57:00,
2013-02-23 08:02:00,45.9,22.9,30.14,North,353,2.7,5.8,40,0.00,,,0.00,VWS V14.01,2013-02-23 16:02:00,
2013-02-23 08:07:00,46.0,21.2,30.14,North,353,3.6,4.0,37,0.00,,,0.00,VWS V14.01,2013-02-23 16:07:00,
2013-02-23 08:12:00,46.4,18.9,30.14,North,357,7.6,7.6,33,0.00,,,0.00,VWS V14.01,2013-02-23 16:12:00,
2013-02-23 08:17:00,46.6,15.2,30.14,NNE,14,7.6,8.1,28,0.00,,,0.00,VWS V14.01,2013-02-23 16:17:00,
2013-02-23 08:22:00,46.6,11.7,30.14,WSW,250,5.4,7.6,24,0.00,,,0.00,VWS V14.01,2013-02-23 16:22:00,
2013-02-23 08:27:00,46.8,9.9,30.11,North,353,8.1,8.1,22,0.00,,,0.00,VWS V14.01,2013-02-23 16:27:00,
2013-02-23 08:32:00,46.9,6.8,30.11,North,353,7.6,7.6,19,0.00,,,0.00,VWS V14.01,2013-02-23 16:32:00,
2013-02-23 08:37:00,46.9,6.8,30.11,NNW,327,5.4,5.8,19,0.00,,,0.00,VWS V14.01,2013-02-23 16:37:00,
2013-02-23 08:42:00,47.1,7.0,30.14,North,357,4.0,8.3,19,0.00,,,0.00,VWS V14.01,2013-02-23 16:42:00,
2013-02-23 08:47:00,47.3,7.1,30.14,WNW,287,4.9,7.2,19,0.00,,,0.00,VWS V14.01,2013-02-23 16:47:00,
2013-02-23 08:52:00,47.3,4.7,30.14,NNE,16,3.6,6.3,17,0.00,,,0.00,VWS V14.01,2013-02-23 16:52:00,
2013-02-23 08:58:00,47.5,4.8,30.14,NNE,22,6.3,6.3,17,0.00,,,0.00,VWS V14.01,2013-02-23 16:58:00,
2013-02-23 09:03:00,47.5,4.8,30.14,West,280,3.6,7.6,17,0.00,,,0.00,VWS V14.01,2013-02-23 17:03:00,
2013-02-23 09:08:00,47.5,4.8,30.14,WNW,297,3.1,3.6,17,0.00,,,0.00,VWS V14.01,2013-02-23 17:08:00,
2013-02-23 09:13:00,47.8,5.2,30.14,NNE,17,4.0,6.3,17,0.00,,,0.00,VWS V14.01,2013-02-23 17:13:00,
2013-02-23 09:18:00,48.0,5.3,30.14,West,266,3.1,6.3,17,0.00,,,0.00,VWS V14.01,2013-02-23 17:18:00,
2013-02-23 09:23:00,48.2,1.2,30.14,North,357,5.4,8.3,14,0.00,,,0.00,VWS V14.01,2013-02-23 17:23:00,
2013-02-23 09:28:00,48.2,4.1,30.14,NNW,348,4.0,6.3,16,0.00,,,0.00,VWS V14.01,2013-02-23 17:28:00,
2013-02-23 09:33:00,48.4,4.3,30.14,West,274,4.9,6.3,16,0.00,,,0.00,VWS V14.01,2013-02-23 17:33:00,
2013-02-23 09:38:00,48.4,1.4,30.14,NNE,21,2.7,5.4,14,0.00,,,0.00,VWS V14.01,2013-02-23 17:38:00,
2013-02-23 09:43:00,48.7,4.6,30.14,North,8,7.6,7.6,16,0.00,,,0.00,VWS V14.01,2013-02-23 17:43:00,
2013-02-23 09:48:00,48.7,4.6,30.14,NNE,18,6.3,6.3,16,0.00,,,0.00,VWS V14.01,2013-02-23 17:48:00,
2013-02-23 09:53:00,48.9,1.8,30.14,WNW,298,3.6,5.4,14,0.00,,,0.00,VWS V14.01,2013-02-23 17:53:00,
2013-02-23 09:58:00,49.3,2.1,30.14,NE,43,3.6,4.9,14,0.00,,,0.00,VWS V14.01,2013-02-23 17:58:00,
2013-02-23 10:03:00,49.6,2.4,30.14,North,357,4.0,4.9,14,0.00,,,0.00,VWS V14.01,2013-02-23 18:03:00,
2013-02-23 10:08:00,50.0,2.7,30.14,NW,316,5.8,6.3,14,0.00,,,0.00,VWS V14.01,2013-02-23 18:08:00,
2013-02-23 10:13:00,50.2,2.8,30.14,North,353,4.9,5.8,14,0.00,,,0.00,VWS V14.01,2013-02-23 18:13:00,
2013-02-23 10:18:00,50.4,3.0,30.14,NW,319,5.4,5.4,14,0.00,,,0.00,VWS V14.01,2013-02-23 18:18:00,
2013-02-23 10:23:00,50.7,3.3,30.14,North,8,3.6,6.7,14,0.00,,,0.00,VWS V14.01,2013-02-23 18:23:00,
2013-02-23 10:28:00,51.1,3.6,30.14,WNW,291,5.4,5.4,14,0.00,,,0.00,VWS V14.01,2013-02-23 18:28:00,
2013-02-23 10:33:00,51.4,3.8,30.14,NW,321,3.1,3.1,14,0.00,,,0.00,VWS V14.01,2013-02-23 18:33:00,
2013-02-23 10:38:00,51.4,3.8,30.14,North,11,3.1,3.1,14,0.00,,,0.00,VWS V14.01,2013-02-23 18:38:00,
2013-02-23 10:43:00,51.4,3.8,30.14,WSW,245,4.0,5.4,14,0.00,,,0.00,VWS V14.01,2013-02-23 18:43:00,
2013-02-23 10:48:00,51.6,4.0,30.14,North,9,7.6,7.6,14,0.00,,,0.00,VWS V14.01,2013-02-23 18:48:00,
2013-02-23 10:53:00,51.6,4.0,30.14,West,270,3.6,8.7,14,0.00,,,0.00,VWS V14.01,2013-02-23 18:53:00,
2013-02-23 10:58:00,52.2,2.8,30.14,West,270,4.0,6.3,13,0.00,,,0.00,VWS V14.01,2013-02-23 18:58:00,
2013-02-23 11:03:00,52.3,3.0,30.14,North,1,3.6,4.0,13,0.00,,,0.00,VWS V14.01,2013-02-23 19:03:00,
2013-02-23 11:08:00,52.9,3.4,30.14,NNE,24,3.6,4.9,13,0.00,,,0.00,VWS V14.01,2013-02-23 19:08:00,
2013-02-23 11:13:00,53.1,3.5,30.14,North,0,3.1,3.1,13,0.00,,,0.00,VWS V14.01,2013-02-23 19:13:00,
2013-02-23 11:18:00,53.2,3.7,30.14,North,357,5.4,7.2,13,0.00,,,0.00,VWS V14.01,2013-02-23 19:18:00,
2013-02-23 11:23:00,53.2,3.7,30.14,NNE,26,5.8,5.8,13,0.00,,,0.00,VWS V14.01,2013-02-23 19:23:00,
2013-02-23 11:28:00,53.4,3.8,30.11,North,5,7.2,7.2,13,0.00,,,0.00,VWS V14.01,2013-02-23 19:28:00,
2013-02-23 11:33:00,53.6,4.0,30.11,NW,322,3.1,3.1,13,0.00,,,0.00,VWS V14.01,2013-02-23 19:33:00,
2013-02-23 11:38:00,54.1,4.4,30.11,West,272,3.1,3.1,13,0.00,,,0.00,VWS V14.01,2013-02-23 19:38:00,
2013-02-23 11:43:00,54.3,4.5,30.14,WNW,297,2.7,2.7,13,0.00,,,0.00,VWS V14.01,2013-02-23 19:43:00,
2013-02-23 11:48:00,54.7,4.8,30.14,NW,308,3.1,5.8,13,0.00,,,0.00,VWS V14.01,2013-02-23 19:48:00,
2013-02-23 11:53:00,54.7,4.8,30.14,NW,323,4.0,4.0,13,0.00,,,0.00,VWS V14.01,2013-02-23 19:53:00,
2013-02-23 11:58:00,54.7,4.8,30.14,NNE,12,3.1,3.6,13,0.00,,,0.00,VWS V14.01,2013-02-23 19:58:00,
2013-02-23 12:03:00,54.7,4.8,30.14,North,0,10.5,10.5,13,0.00,,,0.00,VWS V14.01,2013-02-23 20:03:00,
2013-02-23 12:08:00,54.9,5.0,30.14,West,266,8.1,8.1,13,0.00,,,0.00,VWS V14.01,2013-02-23 20:08:00,
2013-02-23 12:13:00,55.0,5.1,30.14,WNW,301,7.2,8.1,13,0.00,,,0.00,VWS V14.01,2013-02-23 20:13:00,
2013-02-23 12:18:00,55.4,3.7,30.14,West,277,5.8,5.8,12,0.00,,,0.00,VWS V14.01,2013-02-23 20:18:00,
2013-02-23 12:23:00,55.9,4.1,30.14,WNW,284,4.0,8.1,12,0.00,,,0.00,VWS V14.01,2013-02-23 20:23:00,
2013-02-23 12:28:00,55.9,4.1,30.11,NW,318,3.6,4.0,12,0.00,,,0.00,VWS V14.01,2013-02-23 20:28:00,
2013-02-23 12:33:00,55.9,4.1,30.11,WNW,288,4.9,8.1,12,0.00,,,0.00,VWS V14.01,2013-02-23 20:33:00,
2013-02-23 12:38:00,55.9,4.1,30.11,WNW,298,6.3,6.3,12,0.00,,,0.00,VWS V14.01,2013-02-23 20:38:00,
2013-02-23 12:43:00,56.3,4.4,30.11,West,267,7.6,7.6,12,0.00,,,0.00,VWS V14.01,2013-02-23 20:43:00,
2013-02-23 12:48:00,56.3,4.4,30.11,WNW,298,5.8,5.8,12,0.00,,,0.00,VWS V14.01,2013-02-23 20:48:00,
2013-02-23 12:53:00,56.1,4.2,30.11,NNW,331,3.1,5.8,12,0.00,,,0.00,VWS V14.01,2013-02-23 20:53:00,
2013-02-23 12:58:00,56.3,4.4,30.11,NNW,327,3.6,4.0,12,0.00,,,0.00,VWS V14.01,2013-02-23 20:58:00,
2013-02-23 13:03:00,56.5,4.5,30.11,WNW,283,8.7,8.7,12,0.00,,,0.00,VWS V14.01,2013-02-23 21:03:00,
2013-02-23 13:08:00,56.3,4.4,30.11,WNW,291,4.0,4.0,12,0.00,,,0.00,VWS V14.01,2013-02-23 21:08:00,
2013-02-23 13:13:00,56.5,4.5,30.11,NW,307,8.7,9.2,12,0.00,,,0.00,VWS V14.01,2013-02-23 21:13:00,
2013-02-23 13:18:00,56.5,4.5,30.11,SW,233,7.6,7.6,12,0.00,,,0.00,VWS V14.01,2013-02-23 21:18:00,
2013-02-23 13:23:00,56.5,4.5,30.11,WSW,237,5.4,5.4,12,0.00,,,0.00,VWS V14.01,2013-02-23 21:23:00,
2013-02-23 13:28:00,57.0,4.9,30.08,West,266,3.6,8.3,12,0.00,,,0.00,VWS V14.01,2013-02-23 21:28:00,
2013-02-23 13:33:00,56.8,4.8,30.08,NW,304,4.0,4.0,12,0.00,,,0.00,VWS V14.01,2013-02-23 21:33:00,
2013-02-23 13:38:00,57.0,4.9,30.08,North,0,5.4,7.6,12,0.00,,,0.00,VWS V14.01,2013-02-23 21:38:00,
2013-02-23 13:43:00,57.2,5.1,30.08,NNW,331,8.3,11.0,12,0.00,,,0.00,VWS V14.01,2013-02-23 21:43:00,
2013-02-23 13:48:00,57.6,5.3,30.08,West,271,3.6,6.3,12,0.00,,,0.00,VWS V14.01,2013-02-23 21:48:00,
2013-02-23 13:54:00,57.9,5.6,30.08,WNW,295,6.3,6.7,12,0.00,,,0.00,VWS V14.01,2013-02-23 21:54:00,
2013-02-23 13:59:00,57.7,5.5,30.08,SSW,203,5.8,5.8,12,0.00,,,0.00,VWS V14.01,2013-02-23 21:59:00,
2013-02-23 14:04:00,57.7,5.5,30.08,WNW,300,5.4,5.4,12,0.00,,,0.00,VWS V14.01,2013-02-23 22:04:00,
2013-02-23 14:09:00,57.9,5.6,30.08,NNW,329,4.0,5.8,12,0.00,,,0.00,VWS V14.01,2013-02-23 22:09:00,
2013-02-23 14:14:00,58.1,5.8,30.08,West,260,8.7,9.6,12,0.00,,,0.00,VWS V14.01,2013-02-23 22:14:00,
2013-02-23 14:19:00,57.6,5.3,30.08,WNW,286,8.3,10.1,12,0.00,,,0.00,VWS V14.01,2013-02-23 22:19:00,
2013-02-23 14:24:00,57.6,5.3,30.08,West,281,4.0,5.8,12,0.00,,,0.00,VWS V14.01,2013-02-23 22:24:00,
2013-02-23 14:29:00,57.9,5.6,30.08,NNW,328,4.9,6.3,12,0.00,,,0.00,VWS V14.01,2013-02-23 22:29:00,
2013-02-23 14:34:00,58.1,5.8,30.08,North,357,3.1,4.0,12,0.00,,,0.00,VWS V14.01,2013-02-23 22:34:00,
2013-02-23 14:39:00,58.3,5.9,30.08,WSW,244,3.1,6.3,12,0.00,,,0.00,VWS V14.01,2013-02-23 22:39:00,
2013-02-23 14:44:00,58.1,5.8,30.08,NNE,19,4.0,4.0,12,0.00,,,0.00,VWS V14.01,2013-02-23 22:44:00,
2013-02-23 14:49:00,58.1,5.8,30.08,West,263,2.7,3.6,12,0.00,,,0.00,VWS V14.01,2013-02-23 22:49:00,
2013-02-23 14:54:00,58.1,5.8,30.08,West,281,3.1,8.1,12,0.00,,,0.00,VWS V14.01,2013-02-23 22:54:00,
2013-02-23 14:59:00,57.7,5.5,30.08,NNE,15,4.9,4.9,12,0.00,,,0.00,VWS V14.01,2013-02-23 22:59:00,
2013-02-23 15:04:00,57.6,5.3,30.08,West,267,3.1,5.4,12,0.00,,,0.00,VWS V14.01,2013-02-23 23:04:00,
2013-02-23 15:09:00,57.2,5.1,30.08,North,357,8.3,9.2,12,0.00,,,0.00,VWS V14.01,2013-02-23 23:09:00,
2013-02-23 15:14:00,57.6,5.3,30.08,West,271,11.0,11.0,12,0.00,,,0.00,VWS V14.01,2013-02-23 23:14:00,
2013-02-23 15:19:00,57.6,5.3,30.08,WNW,290,6.3,6.3,12,0.00,,,0.00,VWS V14.01,2013-02-23 23:19:00,
2013-02-23 15:24:00,57.4,5.2,30.08,West,261,4.0,8.7,12,0.00,,,0.00,VWS V14.01,2013-02-23 23:24:00,
2013-02-23 15:29:00,57.2,5.1,30.05,SW,229,7.6,7.6,12,0.00,,,0.00,VWS V14.01,2013-02-23 23:29:00,
2013-02-23 15:34:00,56.7,4.6,30.05,NNE,16,2.7,2.7,12,0.00,,,0.00,VWS V14.01,2013-02-23 23:34:00,
2013-02-23 15:39:00,57.0,4.9,30.05,WSW,251,4.9,5.4,12,0.00,,,0.00,VWS V14.01,2013-02-23 23:39:00,
2013-02-23 15:44:00,56.7,4.6,30.05,NW,312,5.8,5.8,12,0.00,,,0.00,VWS V14.01,2013-02-23 23:44:00,
2013-02-23 15:49:00,56.3,4.4,30.05,WSW,250,4.9,4.9,12,0.00,,,0.00,VWS V14.01,2013-02-23 23:49:00,
2013-02-23 15:54:00,56.3,4.4,30.05,West,267,3.1,3.6,12,0.00,,,0.00,VWS V14.01,2013-02-23 23:54:00,
2013-02-23 15:59:00,56.3,4.4,30.05,NW,319,4.0,5.8,12,0.00,,,0.00,VWS V14.01,2013-02-23 23:59:00,
2013-02-23 16:04:00,56.3,4.4,30.05,WNW,282,2.7,2.7,12,0.00,,,0.00,VWS V14.01,2013-02-24 00:04:00,
2013-02-23 16:09:00,56.3,4.4,30.05,SW,232,3.6,3.6,12,0.00,,,0.00,VWS V14.01,2013-02-24 00:09:00,
2013-02-23 16:14:00,56.5,4.5,30.05,West,266,5.4,5.4,12,0.00,,,0.00,VWS V14.01,2013-02-24 00:14:00,
2013-02-23 16:19:00,55.9,4.1,30.05,West,266,4.0,6.3,12,0.00,,,0.00,VWS V14.01,2013-02-24 00:19:00,
2013-02-23 16:24:00,55.9,4.1,30.05,West,280,6.7,6.7,12,0.00,,,0.00,VWS V14.01,2013-02-24 00:24:00,
2013-02-23 16:29:00,55.8,3.9,30.05,WSW,249,3.6,7.2,12,0.00,,,0.00,VWS V14.01,2013-02-24 00:29:00,
2013-02-23 16:34:00,55.8,3.9,30.05,West,279,3.1,3.1,12,0.00,,,0.00,VWS V14.01,2013-02-24 00:34:00,
2013-02-23 16:39:00,55.9,4.1,30.05,West,268,0.0,2.2,12,0.00,,,0.00,VWS V14.01,2013-02-24 00:39:00,
2013-02-23 16:44:00,56.1,4.2,30.05,WNW,284,3.1,3.1,12,0.00,,,0.00,VWS V14.01,2013-02-24 00:44:00,
2013-02-23 16:49:00,55.9,4.1,30.05,West,267,4.0,4.0,12,0.00,,,0.00,VWS V14.01,2013-02-24 00:49:00,
2013-02-23 16:54:00,55.9,4.1,30.05,West,263,0.0,4.0,12,0.00,,,0.00,VWS V14.01,2013-02-24 00:54:00,
2013-02-23 16:59:00,55.4,3.7,30.05,SSW,199,4.0,4.0,12,0.00,,,0.00,VWS V14.01,2013-02-24 00:59:00,
2013-02-23 17:04:00,55.2,5.2,30.05,WNW,300,2.7,4.0,13,0.00,,,0.00,VWS V14.01,2013-02-24 01:04:00,
2013-02-23 17:09:00,54.9,5.0,30.05,West,265,5.8,5.8,13,0.00,,,0.00,VWS V14.01,2013-02-24 01:09:00,
2013-02-23 17:14:00,54.1,4.4,30.05,West,275,7.2,7.6,13,0.00,,,0.00,VWS V14.01,2013-02-24 01:14:00,
2013-02-23 17:19:00,53.2,3.7,30.05,WNW,289,5.4,6.3,13,0.00,,,0.00,VWS V14.01,2013-02-24 01:19:00,
2013-02-23 17:24:00,52.9,3.4,30.05,WNW,292,4.0,4.0,13,0.00,,,0.00,VWS V14.01,2013-02-24 01:24:00,
2013-02-23 17:29:00,52.5,3.1,30.05,WNW,293,3.6,4.9,13,0.00,,,0.00,VWS V14.01,2013-02-24 01:29:00,
2013-02-23 17:34:00,52.0,2.7,30.05,WNW,288,2.7,4.0,13,0.00,,,0.00,VWS V14.01,2013-02-24 01:34:00,
2013-02-23 17:39:00,51.6,4.0,30.05,West,271,3.1,3.1,14,0.00,,,0.00,VWS V14.01,2013-02-24 01:39:00,
2013-02-23 17:44:00,51.3,3.7,30.05,WNW,287,2.2,3.6,14,0.00,,,0.00,VWS V14.01,2013-02-24 01:44:00,
2013-02-23 17:49:00,50.7,3.3,30.05,NW,310,4.0,4.0,14,0.00,,,0.00,VWS V14.01,2013-02-24 01:49:00,
2013-02-23 17:54:00,50.5,3.1,30.05,NW,322,0.0,0.0,14,0.00,,,0.00,VWS V14.01,2013-02-24 01:54:00,
2013-02-23 17:59:00,50.2,2.8,30.08,NNW,333,0.0,0.0,14,0.00,,,0.00,VWS V14.01,2013-02-24 01:59:00,
2013-02-23 18:04:00,50.0,2.7,30.08,WNW,298,0.0,0.0,14,0.00,,,0.00,VWS V14.01,2013-02-24 02:04:00,
2013-02-23 18:09:00,49.8,2.5,30.08,West,268,2.2,2.2,14,0.00,,,0.00,VWS V14.01,2013-02-24 02:09:00,
2013-02-23 18:14:00,49.6,2.4,30.08,North,0,0.0,0.0,14,0.00,,,0.00,VWS V14.01,2013-02-24 02:14:00,
2013-02-23 18:19:00,49.5,2.3,30.08,NNW,333,2.7,2.7,14,0.00,,,0.00,VWS V14.01,2013-02-24 02:19:00,
2013-02-23 18:24:00,49.1,2.0,30.08,North,353,0.0,0.0,14,0.00,,,0.00,VWS V14.01,2013-02-24 02:24:00,
2013-02-23 18:30:00,49.1,2.0,30.08,North,8,3.1,3.6,14,0.00,,,0.00,VWS V14.01,2013-02-24 02:30:00,
2013-02-23 18:35:00,48.9,1.8,30.08,North,0,3.1,5.4,14,0.00,,,0.00,VWS V14.01,2013-02-24 02:35:00,
2013-02-23 18:40:00,48.7,1.7,30.08,North,7,4.0,5.8,14,0.00,,,0.00,VWS V14.01,2013-02-24 02:40:00,
2013-02-23 18:45:00,48.6,1.5,30.08,NW,323,3.6,5.4,14,0.00,,,0.00,VWS V14.01,2013-02-24 02:45:00,
2013-02-23 18:50:00,48.2,1.2,30.08,North,4,3.6,5.8,14,0.00,,,0.00,VWS V14.01,2013-02-24 02:50:00,
2013-02-23 18:55:00,48.0,1.1,30.08,West,262,4.0,4.0,14,0.00,,,0.00,VWS V14.01,2013-02-24 02:55:00,
2013-02-23 19:00:00,47.8,1.0,30.08,North,7,5.4,6.3,14,0.00,,,0.00,VWS V14.01,2013-02-24 03:00:00,
2013-02-23 19:05:00,47.7,0.8,30.08,WNW,288,2.7,3.1,14,0.00,,,0.00,VWS V14.01,2013-02-24 03:05:00,
2013-02-23 19:10:00,47.5,0.7,30.08,North,0,5.8,5.8,14,0.00,,,0.00,VWS V14.01,2013-02-24 03:10:00,
2013-02-23 19:15:00,47.5,4.8,30.08,North,357,3.6,3.6,17,0.00,,,0.00,VWS V14.01,2013-02-24 03:15:00,
2013-02-23 19:20:00,47.3,4.7,30.08,North,349,2.7,3.1,17,0.00,,,0.00,VWS V14.01,2013-02-24 03:20:00,
2013-02-23 19:25:00,47.1,4.6,30.08,NNE,14,2.2,2.2,17,0.00,,,0.00,VWS V14.01,2013-02-24 03:25:00,
2013-02-23 19:30:00,47.1,4.6,30.08,North,357,3.1,3.6,17,0.00,,,0.00,VWS V14.01,2013-02-24 03:30:00,
2013-02-23 19:35:00,47.1,4.6,30.08,NW,312,3.1,3.6,17,0.00,,,0.00,VWS V14.01,2013-02-24 03:35:00,
2013-02-23 19:40:00,47.1,4.6,30.11,NE,43,3.1,3.1,17,0.00,,,0.00,VWS V14.01,2013-02-24 03:40:00,
2013-02-23 19:45:00,47.1,4.6,30.11,North,353,0.0,0.0,17,0.00,,,0.00,VWS V14.01,2013-02-24 03:45:00,
2013-02-23 19:50:00,47.1,4.6,30.11,East,79,0.0,2.7,17,0.00,,,0.00,VWS V14.01,2013-02-24 03:50:00,
2013-02-23 19:55:00,47.1,4.6,30.11,NE,35,0.0,0.0,17,0.00,,,0.00,VWS V14.01,2013-02-24 03:55:00,
2013-02-23 20:00:00,46.9,4.4,30.11,NNE,18,2.7,2.7,17,0.00,,,0.00,VWS V14.01,2013-02-24 04:00:00,
2013-02-23 20:05:00,46.9,4.4,30.11,North,357,4.0,4.0,17,0.00,,,0.00,VWS V14.01,2013-02-24 04:05:00,
2013-02-23 20:10:00,46.9,4.4,30.11,North,0,2.7,4.0,17,0.00,,,0.00,VWS V14.01,2013-02-24 04:10:00,
2013-02-23 20:15:00,46.9,4.4,30.11,North,2,3.6,4.0,17,0.00,,,0.00,VWS V14.01,2013-02-24 04:15:00,
2013-02-23 20:20:00,46.9,4.4,30.11,North,0,2.2,2.7,17,0.00,,,0.00,VWS V14.01,2013-02-24 04:20:00,
2013-02-23 20:25:00,46.9,4.4,30.08,North,10,2.7,3.1,17,0.00,,,0.00,VWS V14.01,2013-02-24 04:25:00,
2013-02-23 20:30:00,46.8,4.3,30.08,NNW,333,3.1,5.4,17,0.00,,,0.00,VWS V14.01,2013-02-24 04:30:00,
2013-02-23 20:35:00,46.8,4.3,30.08,North,357,2.2,2.7,17,0.00,,,0.00,VWS V14.01,2013-02-24 04:35:00,
2013-02-23 20:40:00,46.8,4.3,30.11,North,3,2.7,5.4,17,0.00,,,0.00,VWS V14.01,2013-02-24 04:40:00,
2013-02-23 20:45:00,46.8,4.3,30.11,WNW,302,3.6,3.6,17,0.00,,,0.00,VWS V14.01,2013-02-24 04:45:00,
2013-02-23 20:50:00,46.8,4.3,30.11,North,5,2.7,3.1,17,0.00,,,0.00,VWS V14.01,2013-02-24 04:50:00,
2013-02-23 20:55:00,46.8,4.3,30.11,North,357,2.2,3.1,17,0.00,,,0.00,VWS V14.01,2013-02-24 04:55:00,
2013-02-23 21:00:00,46.6,4.1,30.11,North,7,2.7,2.7,17,0.00,,,0.00,VWS V14.01,2013-02-24 05:00:00,
2013-02-23 21:05:00,46.2,3.8,30.11,North,7,0.0,0.0,17,0.00,,,0.00,VWS V14.01,2013-02-24 05:05:00,
2013-02-23 21:10:00,45.9,3.5,30.11,North,7,3.1,3.1,17,0.00,,,0.00,VWS V14.01,2013-02-24 05:10:00,
2013-02-23 21:15:00,45.5,3.2,30.11,NNE,28,3.6,4.9,17,0.00,,,0.00,VWS V14.01,2013-02-24 05:15:00,
2013-02-23 21:20:00,45.7,3.4,30.11,North,0,2.7,5.4,17,0.00,,,0.00,VWS V14.01,2013-02-24 05:20:00,
2013-02-23 21:25:00,45.7,3.4,30.11,North,5,4.0,4.0,17,0.00,,,0.00,VWS V14.01,2013-02-24 05:25:00,
2013-02-23 21:30:00,45.5,3.2,30.11,North,10,3.6,4.0,17,0.00,,,0.00,VWS V14.01,2013-02-24 05:30:00,
2013-02-23 21:35:00,45.3,3.1,30.11,North,5,3.6,5.4,17,0.00,,,0.00,VWS V14.01,2013-02-24 05:35:00,
2013-02-23 21:40:00,45.3,3.1,30.11,North,1,4.0,4.9,17,0.00,,,0.00,VWS V14.01,2013-02-24 05:40:00,
2013-02-23 21:45:00,45.1,2.9,30.11,North,357,3.6,5.8,17,0.00,,,0.00,VWS V14.01,2013-02-24 05:45:00,
2013-02-23 21:50:00,45.1,2.9,30.11,NNE,12,4.0,4.0,17,0.00,,,0.00,VWS V14.01,2013-02-24 05:50:00,
2013-02-23 21:55:00,45.1,2.9,30.11,NNW,330,3.1,3.1,17,0.00,,,0.00,VWS V14.01,2013-02-24 05:55:00,
2013-02-23 22:00:00,44.8,2.6,30.11,North,353,2.7,2.7,17,0.00,,,0.00,VWS V14.01,2013-02-24 06:00:00,
2013-02-23 22:05:00,44.6,2.5,30.11,NNE,14,2.7,2.7,17,0.00,,,0.00,VWS V14.01,2013-02-24 06:05:00,
2013-02-23 22:10:00,44.2,3.4,30.11,North,2,2.2,3.1,18,0.00,,,0.00,VWS V14.01,2013-02-24 06:10:00,
2013-02-23 22:15:00,44.1,3.3,30.11,North,357,2.7,3.1,18,0.00,,,0.00,VWS V14.01,2013-02-24 06:15:00,
2013-02-23 22:20:00,43.9,3.1,30.11,NW,319,3.1,3.1,18,0.00,,,0.00,VWS V14.01,2013-02-24 06:20:00,
2013-02-23 22:25:00,43.9,5.4,30.11,North,357,2.7,3.1,20,0.00,,,0.00,VWS V14.01,2013-02-24 06:25:00,
2013-02-23 22:30:00,44.1,5.6,30.11,North,0,2.7,3.1,20,0.00,,,0.00,VWS V14.01,2013-02-24 06:30:00,
2013-02-23 22:35:00,43.9,5.4,30.11,North,8,3.1,4.9,20,0.00,,,0.00,VWS V14.01,2013-02-24 06:35:00,
2013-02-23 22:40:00,43.9,5.4,30.11,North,7,2.7,3.1,20,0.00,,,0.00,VWS V14.01,2013-02-24 06:40:00,
2013-02-23 22:45:00,43.9,3.1,30.11,North,0,4.9,4.9,18,0.00,,,0.00,VWS V14.01,2013-02-24 06:45:00,
2013-02-23 22:50:00,44.1,3.3,30.11,North,1,4.0,5.8,18,0.00,,,0.00,VWS V14.01,2013-02-24 06:50:00,
2013-02-23 22:55:00,44.4,3.6,30.11,North,4,4.0,4.0,18,0.00,,,0.00,VWS V14.01,2013-02-24 06:55:00,
2013-02-23 23:00:00,44.4,-0.3,30.11,North,357,6.3,6.3,15,0.00,,,0.00,VWS V14.01,2013-02-24 07:00:00,
2013-02-23 23:05:00,44.6,-0.2,30.11,NNW,348,4.0,6.3,15,0.00,,,0.00,VWS V14.01,2013-02-24 07:05:00,
2013-02-23 23:10:00,44.4,3.6,30.11,North,357,2.7,4.5,18,0.00,,,0.00,VWS V14.01,2013-02-24 07:10:00,
2013-02-23 23:15:00,44.2,3.4,30.11,North,353,2.7,3.1,18,0.00,,,0.00,VWS V14.01,2013-02-24 07:15:00,
2013-02-23 23:20:00,43.9,3.1,30.11,North,10,3.1,3.1,18,0.00,,,0.00,VWS V14.01,2013-02-24 07:20:00,
2013-02-23 23:25:00,43.7,3.0,30.11,North,5,6.3,6.3,18,0.00,,,0.00,VWS V14.01,2013-02-24 07:25:00,
2013-02-23 23:30:00,43.5,2.8,30.11,North,357,4.0,4.0,18,0.00,,,0.00,VWS V14.01,2013-02-24 07:30:00,
2013-02-23 23:35:00,43.3,2.7,30.11,North,7,5.8,5.8,18,0.00,,,0.00,VWS V14.01,2013-02-24 07:35:00,
2013-02-23 23:40:00,43.3,5.0,30.11,North,8,3.1,5.4,20,0.00,,,0.00,VWS V14.01,2013-02-24 07:40:00,
2013-02-23 23:45:00,43.5,5.1,30.11,NNE,19,5.8,5.8,20,0.00,,,0.00,VWS V14.01,2013-02-24 07:45:00,
2013-02-23 23:50:00,43.3,8.0,30.11,North,357,5.8,6.3,23,0.00,,,0.00,VWS V14.01,2013-02-24 07:50:00,
2013-02-23 23:55:00,43.3,8.0,30.11,NNE,13,4.9,5.4,23,0.00,,,0.00,VWS V14.01,2013-02-24 07:55:00,